ARG1680 SABE-SAZS

Flight info

Callsign ARG1680
Flight time 2h 5m
Altitude 32000
Route PAL9 TORUL UT654 ORERA ORERA2Q
Aircraft B738/M-MSDFGHILRVW/LB1

Departure

Time 2026-04-25 19:35
Airport Aeroparque Jorge Newbery (SABE)

Arrival

Time 2026-04-25 21:40
Airport Teniente Luis Candelaria International Airport (SAZS)
Time Latitude Longitude Altitude Speed Heading
2026-04-25 18:52 -34.56035 -58.40918 24 ft 0 kts 38°
2026-04-25 19:26 -34.56039 -58.40922 30 ft 2 kts 38°
2026-04-25 19:26 -34.56054 -58.40936 27 ft 3 kts 34°
2026-04-25 19:26 -34.56071 -58.40948 27 ft 3 kts
2026-04-25 19:26 -34.56086 -58.40946 30 ft 2 kts 324°
2026-04-25 19:27 -34.56102 -58.40933 27 ft 3 kts 326°
2026-04-25 19:27 -34.56107 -58.40929 29 ft 3 kts 324°
2026-04-25 19:27 -34.56114 -58.40923 27 ft 0 kts 322°
2026-04-25 19:30 -34.56105 -58.40929 29 ft 5 kts 329°
2026-04-25 19:30 -34.56070 -58.40970 27 ft 8 kts 308°
2026-04-25 19:30 -34.56036 -58.41027 24 ft 8 kts 292°
2026-04-25 19:30 -34.56073 -58.41057 24 ft 8 kts 151°
2026-04-25 19:31 -34.56109 -58.41005 27 ft 8 kts 126°
2026-04-25 19:31 -34.56147 -58.40939 27 ft 12 kts 122°
2026-04-25 19:31 -34.56172 -58.40850 25 ft 10 kts 95°
2026-04-25 19:31 -34.56203 -58.40777 27 ft 10 kts 123°
2026-04-25 19:32 -34.56244 -58.40700 26 ft 12 kts 124°
2026-04-25 19:32 -34.56290 -58.40618 26 ft 12 kts 124°
2026-04-25 19:32 -34.56343 -58.40547 24 ft 11 kts 138°
2026-04-25 19:32 -34.56381 -58.40506 25 ft 11 kts 138°
2026-04-25 19:33 -34.56459 -58.40421 24 ft 12 kts 138°
2026-04-25 19:33 -34.56513 -58.40382 24 ft 9 kts 182°
2026-04-25 19:33 -34.56560 -58.40422 26 ft 8 kts 239°
2026-04-25 19:33 -34.56553 -58.40450 26 ft 0 kts 303°
2026-04-25 19:34 -34.56551 -58.40454 27 ft 3 kts 303°
2026-04-25 19:35 -34.56461 -58.40615 27 ft 58 kts 304°
2026-04-25 19:35 -34.56090 -58.41280 27 ft 131 kts 304°
2026-04-25 19:35 -34.55470 -58.42376 207 ft 174 kts 303°
2026-04-25 19:35 -34.54797 -58.43597 1090 ft 173 kts 302°
2026-04-25 19:36 -34.53877 -58.44593 1633 ft 197 kts 339°
2026-04-25 19:36 -34.52421 -58.44549 1907 ft 225 kts 21°
2026-04-25 19:36 -34.51039 -58.43527 2277 ft 243 kts 32°
2026-04-25 19:36 -34.49573 -58.42360 2656 ft 261 kts 32°
2026-04-25 19:37 -34.48029 -58.41134 3321 ft 272 kts 32°
2026-04-25 19:37 -34.46425 -58.39874 4189 ft 273 kts 32°
2026-04-25 19:37 -34.44808 -58.38607 4920 ft 282 kts 32°
2026-04-25 19:37 -34.43178 -58.37279 5671 ft 288 kts 39°
2026-04-25 19:38 -34.41944 -58.35361 6448 ft 291 kts 67°
2026-04-25 19:38 -34.41522 -58.32971 7205 ft 292 kts 94°
2026-04-25 19:38 -34.41982 -58.30617 7926 ft 291 kts 120°
2026-04-25 19:38 -34.43228 -58.28731 8623 ft 290 kts 146°
2026-04-25 19:39 -34.45033 -58.27681 9338 ft 287 kts 172°
2026-04-25 19:39 -34.46987 -58.27697 10003 ft 283 kts 201°
2026-04-25 19:39 -34.48680 -58.28931 10361 ft 292 kts 231°
2026-04-25 19:39 -34.49727 -58.31103 10561 ft 311 kts 244°
2026-04-25 19:40 -34.51065 -58.33271 10719 ft 336 kts 228°
2026-04-25 19:40 -34.52735 -58.35366 11083 ft 349 kts 229°
2026-04-25 19:40 -34.54403 -58.37503 11698 ft 354 kts 229°
2026-04-25 19:40 -34.56103 -58.39693 12424 ft 356 kts 230°
2026-04-25 19:41 -34.57794 -58.41874 13126 ft 358 kts 230°
2026-04-25 19:41 -34.59524 -58.44104 13794 ft 362 kts 230°
2026-04-25 19:41 -34.61264 -58.46346 14428 ft 365 kts 230°
2026-04-25 19:41 -34.62425 -58.47840 14875 ft 366 kts 230°
2026-04-25 19:42 -34.64748 -58.50829 15805 ft 366 kts 231°
2026-04-25 19:42 -34.66503 -58.53087 16380 ft 369 kts 231°
2026-04-25 19:42 -34.68260 -58.55352 16920 ft 372 kts 231°
2026-04-25 19:42 -34.70041 -58.57647 17505 ft 374 kts 231°
2026-04-25 19:43 -34.71846 -58.59975 18096 ft 377 kts 231°
2026-04-25 19:43 -34.73636 -58.62284 18591 ft 379 kts 231°
2026-04-25 19:43 -34.75436 -58.64607 19101 ft 381 kts 231°
2026-04-25 19:43 -34.77274 -58.66981 19645 ft 381 kts 232°
2026-04-25 19:44 -34.79083 -58.69319 20153 ft 383 kts 232°
2026-04-25 19:44 -34.80922 -58.71697 20738 ft 382 kts 232°
2026-04-25 19:44 -34.82717 -58.74017 21401 ft 379 kts 233°
2026-04-25 19:44 -34.84518 -58.76350 21860 ft 381 kts 233°
2026-04-25 19:45 -34.86356 -58.78735 22262 ft 385 kts 233°
2026-04-25 19:45 -34.88177 -58.81101 22699 ft 387 kts 233°
2026-04-25 19:45 -34.90020 -58.83495 23162 ft 388 kts 233°
2026-04-25 19:45 -34.91883 -58.85915 23588 ft 390 kts 233°
2026-04-25 19:46 -34.93730 -58.88316 23942 ft 392 kts 234°
2026-04-25 19:46 -34.95597 -58.90744 24298 ft 393 kts 234°
2026-04-25 19:46 -34.97487 -58.93205 24662 ft 394 kts 234°
2026-04-25 19:46 -34.99353 -58.95635 25017 ft 396 kts 234°
2026-04-25 19:47 -35.01222 -58.98072 25353 ft 397 kts 234°
2026-04-25 19:47 -35.03128 -59.00558 25685 ft 398 kts 235°
2026-04-25 19:47 -35.05015 -59.03022 26023 ft 400 kts 235°
2026-04-25 19:47 -35.06930 -59.05525 26336 ft 401 kts 235°
2026-04-25 19:48 -35.08831 -59.08011 26628 ft 403 kts 235°
2026-04-25 19:48 -35.10732 -59.10499 26959 ft 404 kts 236°
2026-04-25 19:48 -35.12656 -59.13015 27377 ft 402 kts 236°
2026-04-25 19:48 -35.14544 -59.15484 27890 ft 399 kts 236°
2026-04-25 19:49 -35.16441 -59.17968 28364 ft 397 kts 236°
2026-04-25 19:49 -35.17701 -59.19623 28554 ft 399 kts 236°
2026-04-25 19:49 -35.20241 -59.22965 28818 ft 404 kts 236°
2026-04-25 19:49 -35.22146 -59.25474 29067 ft 407 kts 236°
2026-04-25 19:50 -35.25998 -59.30536 29944 ft 403 kts 237°
2026-04-25 19:50 -35.27883 -59.33015 30376 ft 401 kts 237°
2026-04-25 19:50 -35.29799 -59.35544 30611 ft 402 kts 237°
2026-04-25 19:51 -35.31698 -59.38051 30883 ft 402 kts 237°
2026-04-25 19:51 -35.33582 -59.40536 31246 ft 400 kts 237°
2026-04-25 19:51 -35.35461 -59.43016 31658 ft 397 kts 237°
2026-04-25 19:51 -35.37231 -59.45590 32022 ft 388 kts 242°
2026-04-25 19:52 -35.38822 -59.48261 32353 ft 385 kts 243°
2026-04-25 19:52 -35.40359 -59.50916 32658 ft 384 kts 244°
2026-04-25 19:52 -35.41891 -59.53582 32987 ft 383 kts 244°
2026-04-25 19:52 -35.43436 -59.56265 33302 ft 382 kts 244°
2026-04-25 19:53 -35.44961 -59.58902 33571 ft 381 kts 244°
2026-04-25 19:53 -35.46492 -59.61543 33851 ft 382 kts 243°
2026-04-25 19:53 -35.48028 -59.64188 33942 ft 384 kts 243°
2026-04-25 19:54 -35.51136 -59.69527 33975 ft 384 kts 243°
2026-04-25 19:54 -35.54249 -59.74873 33992 ft 385 kts 243°
2026-04-25 19:55 -35.57363 -59.80228 33992 ft 387 kts 243°
2026-04-25 19:55 -35.60503 -59.85636 33990 ft 388 kts 243°
2026-04-25 19:56 -35.63620 -59.91012 33993 ft 389 kts 242°
2026-04-25 19:56 -35.66754 -59.96426 33996 ft 390 kts 242°
2026-04-25 19:57 -35.69889 -60.01851 33990 ft 390 kts 242°
2026-04-25 19:57 -35.73039 -60.07310 33993 ft 391 kts 242°
2026-04-25 19:58 -35.76187 -60.12773 33994 ft 391 kts 242°
2026-04-25 19:58 -35.79313 -60.18208 34008 ft 390 kts 242°
2026-04-25 19:59 -35.82453 -60.23675 33997 ft 391 kts 242°
2026-04-25 19:59 -35.85589 -60.29146 33994 ft 391 kts 242°
2026-04-25 20:00 -35.88733 -60.34637 33993 ft 391 kts 242°
2026-04-25 20:00 -35.91856 -60.40102 33999 ft 391 kts 242°
2026-04-25 20:01 -35.96559 -60.48349 34005 ft 393 kts 240°
2026-04-25 20:01 -35.99710 -60.53884 33996 ft 394 kts 240°
2026-04-25 20:02 -36.02856 -60.59419 33990 ft 394 kts 240°
2026-04-25 20:02 -36.06009 -60.64975 33988 ft 395 kts 240°
2026-04-25 20:03 -36.09145 -60.70510 33990 ft 395 kts 240°
2026-04-25 20:03 -36.12314 -60.76113 33998 ft 396 kts 240°
2026-04-25 20:04 -36.15438 -60.81668 33986 ft 396 kts 240°
2026-04-25 20:04 -36.18574 -60.87273 33984 ft 396 kts 240°
2026-04-25 20:05 -36.21717 -60.92899 33986 ft 396 kts 240°
2026-04-25 20:05 -36.24843 -60.98500 33986 ft 396 kts 240°
2026-04-25 20:06 -36.27972 -61.04118 33986 ft 396 kts 240°
2026-04-25 20:06 -36.31093 -61.09730 33985 ft 396 kts 240°
2026-04-25 20:07 -36.34224 -61.15368 33983 ft 395 kts 240°
2026-04-25 20:07 -36.37336 -61.20980 33987 ft 396 kts 240°
2026-04-25 20:08 -36.40448 -61.26604 33980 ft 396 kts 240°
2026-04-25 20:08 -36.43562 -61.32242 33981 ft 396 kts 240°
2026-04-25 20:09 -36.46695 -61.37928 33996 ft 402 kts 240°
2026-04-25 20:09 -36.49883 -61.43725 33990 ft 410 kts 240°
2026-04-25 20:10 -36.53121 -61.49620 33982 ft 415 kts 240°
2026-04-25 20:10 -36.56382 -61.55561 33977 ft 417 kts 240°
2026-04-25 20:11 -36.59648 -61.61525 33973 ft 417 kts 240°
2026-04-25 20:11 -36.62914 -61.67499 33974 ft 417 kts 240°
2026-04-25 20:12 -36.66164 -61.73454 33971 ft 416 kts 240°
2026-04-25 20:12 -36.68329 -61.77428 33972 ft 416 kts 240°
2026-04-25 20:13 -36.72642 -61.85359 33974 ft 415 kts 240°
2026-04-25 20:13 -36.75868 -61.91304 34004 ft 414 kts 240°
2026-04-25 20:14 -36.79100 -61.97269 33984 ft 414 kts 239°
2026-04-25 20:14 -36.82318 -62.03221 33963 ft 414 kts 239°
2026-04-25 20:15 -36.85531 -62.09172 33975 ft 413 kts 240°
2026-04-25 20:15 -36.88714 -62.15078 33966 ft 412 kts 240°
2026-04-25 20:16 -36.91911 -62.21021 33977 ft 412 kts 240°
2026-04-25 20:16 -36.95106 -62.26971 33970 ft 411 kts 240°
2026-04-25 20:17 -36.98297 -62.32925 33972 ft 411 kts 240°
2026-04-25 20:17 -37.01462 -62.38838 33968 ft 411 kts 240°
2026-04-25 20:18 -37.04636 -62.44782 33964 ft 411 kts 240°
2026-04-25 20:18 -37.07808 -62.50731 33963 ft 411 kts 240°
2026-04-25 20:19 -37.10983 -62.56696 33968 ft 411 kts 240°
2026-04-25 20:19 -37.14149 -62.62654 33964 ft 411 kts 240°
2026-04-25 20:20 -37.17309 -62.68613 33995 ft 411 kts 240°
2026-04-25 20:20 -37.20478 -62.74598 33971 ft 411 kts 240°
2026-04-25 20:21 -37.23639 -62.80580 33963 ft 411 kts 240°
2026-04-25 20:21 -37.26794 -62.86562 33967 ft 411 kts 240°
2026-04-25 20:22 -37.28900 -62.90559 33964 ft 411 kts 240°
2026-04-25 20:22 -37.33091 -62.98531 33966 ft 410 kts 240°
2026-04-25 20:23 -37.36214 -63.04476 33967 ft 410 kts 240°
2026-04-25 20:23 -37.39357 -63.10445 33967 ft 410 kts 240°
2026-04-25 20:24 -37.42519 -63.16459 33979 ft 410 kts 240°
2026-04-25 20:24 -37.45636 -63.22400 33971 ft 409 kts 240°
2026-04-25 20:25 -37.48780 -63.28406 33968 ft 409 kts 240°
2026-04-25 20:25 -37.51901 -63.34379 33965 ft 409 kts 240°
2026-04-25 20:26 -37.54516 -63.39392 33970 ft 409 kts 240°
2026-04-25 20:26 -37.57617 -63.45348 33997 ft 409 kts 240°
2026-04-25 20:27 -37.60757 -63.51387 33983 ft 409 kts 240°
2026-04-25 20:27 -37.63862 -63.57372 33966 ft 408 kts 240°
2026-04-25 20:28 -37.66960 -63.63353 33961 ft 408 kts 240°
2026-04-25 20:28 -37.70057 -63.69344 33966 ft 408 kts 240°
2026-04-25 20:29 -37.73150 -63.75337 33972 ft 407 kts 240°
2026-04-25 20:29 -37.76239 -63.81332 33965 ft 407 kts 240°
2026-04-25 20:30 -37.79316 -63.87318 33980 ft 406 kts 240°
2026-04-25 20:30 -37.82400 -63.93326 33973 ft 406 kts 240°
2026-04-25 20:31 -37.85459 -63.99298 33967 ft 406 kts 240°
2026-04-25 20:31 -37.88535 -64.05312 33968 ft 406 kts 240°
2026-04-25 20:32 -37.91591 -64.11299 33962 ft 405 kts 240°
2026-04-25 20:32 -37.94641 -64.17285 33969 ft 405 kts 240°
2026-04-25 20:33 -37.97697 -64.23294 33977 ft 405 kts 240°
2026-04-25 20:33 -38.00238 -64.28299 33967 ft 406 kts 240°
2026-04-25 20:34 -38.03805 -64.35337 33961 ft 406 kts 240°
2026-04-25 20:34 -38.06852 -64.41363 33960 ft 406 kts 240°
2026-04-25 20:35 -38.09901 -64.47400 33963 ft 405 kts 240°
2026-04-25 20:35 -38.12929 -64.53419 33956 ft 405 kts 240°
2026-04-25 20:36 -38.15951 -64.59447 33961 ft 405 kts 240°
2026-04-25 20:36 -38.18990 -64.65519 33964 ft 405 kts 240°
2026-04-25 20:37 -38.22001 -64.71548 33962 ft 405 kts 240°
2026-04-25 20:37 -38.25003 -64.77567 33958 ft 405 kts 240°
2026-04-25 20:38 -38.28026 -64.83639 33961 ft 405 kts 240°
2026-04-25 20:38 -38.31032 -64.89690 33960 ft 405 kts 240°
2026-04-25 20:39 -38.34044 -64.95765 33964 ft 405 kts 240°
2026-04-25 20:39 -38.36539 -65.00803 33961 ft 405 kts 240°
2026-04-25 20:40 -38.40043 -65.07895 33960 ft 405 kts 240°
2026-04-25 20:40 -38.43027 -65.13945 33958 ft 404 kts 240°
2026-04-25 20:41 -38.46013 -65.20013 33958 ft 404 kts 240°
2026-04-25 20:41 -38.48995 -65.26082 33952 ft 404 kts 240°
2026-04-25 20:42 -38.51973 -65.32156 33968 ft 404 kts 240°
2026-04-25 20:42 -38.54954 -65.38245 33959 ft 403 kts 240°
2026-04-25 20:43 -38.57916 -65.44310 33956 ft 402 kts 240°
2026-04-25 20:43 -38.60878 -65.50383 33958 ft 402 kts 240°
2026-04-25 20:44 -38.63816 -65.56420 33957 ft 402 kts 240°
2026-04-25 20:44 -38.66781 -65.62525 33961 ft 402 kts 240°
2026-04-25 20:45 -38.69721 -65.68588 33953 ft 401 kts 240°
2026-04-25 20:45 -38.72634 -65.74608 33959 ft 400 kts 240°
2026-04-25 20:46 -38.75576 -65.80699 33997 ft 400 kts 240°
2026-04-25 20:46 -38.78503 -65.86771 33968 ft 401 kts 241°
2026-04-25 20:47 -38.81429 -65.92851 33954 ft 401 kts 241°
2026-04-25 20:47 -38.84341 -65.98916 33954 ft 400 kts 241°
2026-04-25 20:48 -38.87248 -66.04980 33949 ft 400 kts 241°
2026-04-25 20:48 -38.90161 -66.11067 33952 ft 400 kts 241°
2026-04-25 20:49 -38.93069 -66.17166 33951 ft 400 kts 241°
2026-04-25 20:49 -38.95952 -66.23234 33950 ft 400 kts 241°
2026-04-25 20:50 -38.98850 -66.29346 33952 ft 400 kts 241°
2026-04-25 20:50 -39.01725 -66.35421 33948 ft 399 kts 241°
2026-04-25 20:51 -39.04602 -66.41513 33950 ft 399 kts 241°
2026-04-25 20:51 -39.07482 -66.47621 33947 ft 399 kts 241°
2026-04-25 20:52 -39.09876 -66.52708 33942 ft 398 kts 241°
2026-04-25 20:52 -39.13208 -66.59800 33944 ft 398 kts 240°
2026-04-25 20:53 -39.16072 -66.65909 33950 ft 399 kts 241°
2026-04-25 20:53 -39.18937 -66.72033 33942 ft 399 kts 241°
2026-04-25 20:54 -39.21812 -66.78190 33940 ft 399 kts 241°
2026-04-25 20:54 -39.24669 -66.84321 33940 ft 400 kts 241°
2026-04-25 20:55 -39.27527 -66.90464 33920 ft 400 kts 240°
2026-04-25 20:55 -39.30400 -66.96652 33940 ft 402 kts 240°
2026-04-25 20:56 -39.33275 -67.02857 33939 ft 404 kts 240°
2026-04-25 20:56 -39.36148 -67.09071 33937 ft 405 kts 240°
2026-04-25 20:57 -39.39046 -67.15349 33927 ft 406 kts 241°
2026-04-25 20:57 -39.41937 -67.21627 33925 ft 406 kts 241°
2026-04-25 20:58 -39.44801 -67.27857 33931 ft 404 kts 240°
2026-04-25 20:58 -39.47664 -67.34097 33927 ft 402 kts 240°
2026-04-25 20:59 -39.50506 -67.40303 33925 ft 400 kts 240°
2026-04-25 20:59 -39.53343 -67.46514 33937 ft 400 kts 241°
2026-04-25 21:00 -39.55235 -67.50661 33932 ft 400 kts 241°
2026-04-25 21:01 -39.60395 -67.61999 33926 ft 399 kts 241°
2026-04-25 21:01 -39.63215 -67.68215 33925 ft 400 kts 241°
2026-04-25 21:02 -39.66044 -67.74461 33930 ft 400 kts 241°
2026-04-25 21:02 -39.68860 -67.80692 33928 ft 401 kts 241°
2026-04-25 21:03 -39.71681 -67.86946 33922 ft 401 kts 241°
2026-04-25 21:03 -39.74496 -67.93200 33927 ft 401 kts 241°
2026-04-25 21:04 -39.77292 -67.99424 33938 ft 401 kts 241°
2026-04-25 21:04 -39.80120 -68.05729 33937 ft 402 kts 241°
2026-04-25 21:05 -39.83048 -68.11887 33931 ft 402 kts 238°
2026-04-25 21:05 -39.86160 -68.17955 33928 ft 402 kts 238°
2026-04-25 21:06 -39.89260 -68.23995 33989 ft 401 kts 237°
2026-04-25 21:06 -39.92333 -68.30037 33954 ft 400 kts 238°
2026-04-25 21:07 -39.95383 -68.36070 33947 ft 398 kts 238°
2026-04-25 21:07 -39.98428 -68.42110 33944 ft 397 kts 238°
2026-04-25 21:08 -40.01448 -68.48115 33955 ft 397 kts 238°
2026-04-25 21:08 -40.04469 -68.54132 33973 ft 396 kts 238°
2026-04-25 21:09 -40.08978 -68.63133 33961 ft 394 kts 238°
2026-04-25 21:09 -40.11955 -68.69090 33959 ft 393 kts 238°
2026-04-25 21:10 -40.14948 -68.75091 33963 ft 392 kts 238°
2026-04-25 21:10 -40.17904 -68.81029 33965 ft 392 kts 238°
2026-04-25 21:11 -40.20877 -68.87013 33964 ft 391 kts 238°
2026-04-25 21:11 -40.23844 -68.92996 33977 ft 392 kts 238°
2026-04-25 21:12 -40.26798 -68.98966 33970 ft 392 kts 238°
2026-04-25 21:12 -40.28747 -69.02907 33962 ft 382 kts 238°
2026-04-25 21:13 -40.32567 -69.10652 33961 ft 375 kts 238°
2026-04-25 21:13 -40.33981 -69.13524 33744 ft 371 kts 238°
2026-04-25 21:13 -40.35359 -69.16321 33419 ft 363 kts 238°
2026-04-25 21:14 -40.36715 -69.19074 33028 ft 358 kts 238°
2026-04-25 21:14 -40.38064 -69.21814 32600 ft 354 kts 238°
2026-04-25 21:14 -40.39379 -69.24487 32193 ft 350 kts 238°
2026-04-25 21:14 -40.40699 -69.27171 31797 ft 346 kts 238°
2026-04-25 21:15 -40.41997 -69.29814 31398 ft 343 kts 237°
2026-04-25 21:15 -40.43269 -69.32405 31018 ft 339 kts 237°
2026-04-25 21:15 -40.44547 -69.35013 30638 ft 336 kts 237°
2026-04-25 21:15 -40.45802 -69.37575 30253 ft 333 kts 237°
2026-04-25 21:16 -40.47056 -69.40137 29841 ft 330 kts 237°
2026-04-25 21:16 -40.48286 -69.42653 29423 ft 327 kts 237°
2026-04-25 21:16 -40.49500 -69.45137 29039 ft 323 kts 237°
2026-04-25 21:16 -40.50306 -69.46788 28761 ft 321 kts 237°
2026-04-25 21:17 -40.51899 -69.50051 28244 ft 317 kts 237°
2026-04-25 21:17 -40.52703 -69.51701 27979 ft 315 kts 237°
2026-04-25 21:17 -40.54256 -69.54888 27499 ft 311 kts 237°
2026-04-25 21:17 -40.55045 -69.56510 27233 ft 309 kts 237°
2026-04-25 21:18 -40.56183 -69.58849 26872 ft 305 kts 237°
2026-04-25 21:18 -40.57331 -69.61211 26523 ft 304 kts 237°
2026-04-25 21:18 -40.58458 -69.63531 26133 ft 303 kts 237°
2026-04-25 21:18 -40.59596 -69.65877 25763 ft 302 kts 237°
2026-04-25 21:19 -40.60714 -69.68182 25397 ft 301 kts 237°
2026-04-25 21:19 -40.61844 -69.70513 25034 ft 301 kts 237°
2026-04-25 21:19 -40.62971 -69.72839 24673 ft 302 kts 237°
2026-04-25 21:19 -40.64100 -69.75173 24304 ft 304 kts 237°
2026-04-25 21:20 -40.65242 -69.77534 23941 ft 306 kts 237°
2026-04-25 21:20 -40.66004 -69.79110 23701 ft 306 kts 237°
2026-04-25 21:20 -40.67523 -69.82257 23137 ft 306 kts 237°
2026-04-25 21:20 -40.68673 -69.84639 22736 ft 304 kts 237°
2026-04-25 21:21 -40.69788 -69.86954 22374 ft 301 kts 237°
2026-04-25 21:21 -40.70911 -69.89285 22050 ft 298 kts 237°
2026-04-25 21:21 -40.72021 -69.91592 21691 ft 295 kts 237°
2026-04-25 21:21 -40.73105 -69.93845 21347 ft 293 kts 237°
2026-04-25 21:22 -40.74203 -69.96130 20978 ft 291 kts 237°
2026-04-25 21:22 -40.75280 -69.98370 20636 ft 290 kts 237°
2026-04-25 21:22 -40.76354 -70.00610 20275 ft 289 kts 238°
2026-04-25 21:22 -40.77436 -70.02865 19919 ft 288 kts 238°
2026-04-25 21:23 -40.78497 -70.05080 19574 ft 287 kts 238°
2026-04-25 21:23 -40.79557 -70.07291 19236 ft 285 kts 238°
2026-04-25 21:23 -40.80624 -70.09521 18894 ft 285 kts 238°
2026-04-25 21:23 -40.81681 -70.11733 18545 ft 286 kts 238°
2026-04-25 21:24 -40.82728 -70.13924 18190 ft 286 kts 238°
2026-04-25 21:24 -40.83799 -70.16166 17798 ft 286 kts 238°
2026-04-25 21:24 -40.84855 -70.18380 17436 ft 286 kts 238°
2026-04-25 21:24 -40.85911 -70.20597 17056 ft 287 kts 238°
2026-04-25 21:25 -40.86989 -70.22858 16719 ft 287 kts 238°
2026-04-25 21:25 -40.88041 -70.25068 16351 ft 287 kts 238°
2026-04-25 21:25 -40.89107 -70.27308 15990 ft 284 kts 238°
2026-04-25 21:25 -40.90145 -70.29491 15643 ft 281 kts 238°
2026-04-25 21:26 -40.91184 -70.31679 15284 ft 278 kts 238°
2026-04-25 21:26 -40.92205 -70.33829 14942 ft 276 kts 238°
2026-04-25 21:26 -40.93219 -70.35967 14581 ft 273 kts 238°
2026-04-25 21:26 -40.94220 -70.38079 14258 ft 271 kts 238°
2026-04-25 21:27 -40.95226 -70.40202 13904 ft 270 kts 238°
2026-04-25 21:27 -40.96220 -70.42300 13541 ft 268 kts 238°
2026-04-25 21:27 -40.97202 -70.44374 13180 ft 266 kts 238°
2026-04-25 21:27 -40.98297 -70.46351 12845 ft 263 kts 232°
2026-04-25 21:28 -40.99463 -70.48200 12489 ft 262 kts 232°
2026-04-25 21:28 -41.00629 -70.50038 12149 ft 261 kts 232°
2026-04-25 21:28 -41.01779 -70.51874 11803 ft 260 kts 232°
2026-04-25 21:28 -41.02935 -70.53731 11446 ft 259 kts 232°
2026-04-25 21:29 -41.04057 -70.55539 11105 ft 253 kts 233°
2026-04-25 21:29 -41.05166 -70.57333 10775 ft 247 kts 233°
2026-04-25 21:29 -41.06235 -70.59066 10466 ft 243 kts 233°
2026-04-25 21:29 -41.07306 -70.60804 10298 ft 238 kts 234°
2026-04-25 21:30 -41.08330 -70.62467 10164 ft 231 kts 234°
2026-04-25 21:30 -41.09337 -70.64102 10059 ft 223 kts 234°
2026-04-25 21:30 -41.10297 -70.65663 9972 ft 216 kts 234°
2026-04-25 21:30 -41.10931 -70.66695 9780 ft 217 kts 234°
2026-04-25 21:31 -41.12180 -70.68730 9432 ft 214 kts 234°
2026-04-25 21:31 -41.13125 -70.70271 9181 ft 213 kts 234°
2026-04-25 21:31 -41.14038 -70.71759 9089 ft 205 kts 235°
2026-04-25 21:31 -41.14917 -70.73190 8997 ft 197 kts 235°
2026-04-25 21:32 -41.15767 -70.74575 8915 ft 190 kts 235°
2026-04-25 21:32 -41.16602 -70.75938 8845 ft 187 kts 235°
2026-04-25 21:32 -41.17410 -70.77257 8773 ft 181 kts 236°
2026-04-25 21:32 -41.18178 -70.78509 8728 ft 170 kts 236°
2026-04-25 21:33 -41.18918 -70.79716 8558 ft 163 kts 236°
2026-04-25 21:33 -41.19641 -70.80902 8280 ft 169 kts 237°
2026-04-25 21:33 -41.20362 -70.82082 8109 ft 165 kts 237°
2026-04-25 21:33 -41.21081 -70.83259 7889 ft 161 kts 237°
2026-04-25 21:34 -41.21775 -70.84393 7662 ft 157 kts 238°
2026-04-25 21:34 -41.22441 -70.85482 7429 ft 149 kts 238°
2026-04-25 21:34 -41.23089 -70.86543 7261 ft 148 kts 238°
2026-04-25 21:34 -41.23735 -70.87608 7027 ft 147 kts 239°
2026-04-25 21:35 -41.24098 -70.88843 6842 ft 148 kts 265°
2026-04-25 21:35 -41.23890 -70.90219 6826 ft 161 kts 288°
2026-04-25 21:35 -41.23450 -70.91665 6609 ft 170 kts 288°
2026-04-25 21:35 -41.22987 -70.93101 6392 ft 165 kts 290°
2026-04-25 21:36 -41.22528 -70.94454 6171 ft 159 kts 290°
2026-04-25 21:36 -41.22075 -70.95769 5912 ft 157 kts 291°
2026-04-25 21:36 -41.21617 -70.97081 5733 ft 155 kts 291°
2026-04-25 21:36 -41.21162 -70.98388 5525 ft 159 kts 292°
2026-04-25 21:37 -41.20700 -70.99714 5301 ft 157 kts 292°
2026-04-25 21:37 -41.20399 -71.00578 5176 ft 150 kts 292°
2026-04-25 21:37 -41.19817 -71.02249 4910 ft 149 kts 293°
2026-04-25 21:37 -41.19387 -71.03481 4673 ft 146 kts 293°
2026-04-25 21:38 -41.18962 -71.04706 4424 ft 144 kts 294°
2026-04-25 21:38 -41.18546 -71.05901 4194 ft 142 kts 294°
2026-04-25 21:38 -41.18129 -71.07099 3999 ft 145 kts 294°
2026-04-25 21:38 -41.17708 -71.08311 3790 ft 144 kts 295°
2026-04-25 21:39 -41.17293 -71.09503 3606 ft 142 kts 295°
2026-04-25 21:39 -41.16877 -71.10708 3416 ft 142 kts 294°
2026-04-25 21:39 -41.16471 -71.11887 3232 ft 140 kts 293°
2026-04-25 21:39 -41.16063 -71.13067 3042 ft 139 kts 293°
2026-04-25 21:40 -41.15656 -71.14219 2826 ft 137 kts 294°
2026-04-25 21:40 -41.15267 -71.15315 2756 ft 120 kts 291°
2026-04-25 21:40 -41.14997 -71.16098 2754 ft 55 kts 295°
2026-04-25 21:40 -41.14919 -71.16320 2754 ft 12 kts 302°
2026-04-25 21:41 -41.14856 -71.16319 2752 ft 9 kts 25°
2026-04-25 21:41 -41.14797 -71.16282 2749 ft 8 kts 25°
2026-04-25 21:41 -41.14764 -71.16255 2748 ft 4 kts 35°
2026-04-25 21:41 -41.14742 -71.16238 2748 ft 4 kts 32°
2026-04-25 21:42 -41.14726 -71.16216 2748 ft 3 kts 50°
2026-04-25 21:42 -41.14714 -71.16194 2750 ft 3 kts 56°
2026-04-25 21:42 -41.14704 -71.16171 2749 ft 3 kts 58°
2026-04-25 21:42 -41.14698 -71.16159 2748 ft 0 kts 57°